This is the latest recevied weather packets stored in our database for station/object AA5QJ. If no packets are shown the sender has not sent any weather packets the latest 1 day(s).
| Time | Temp. | Humidity | Pressure | Rain* | Wind** | Luminosity | Snow |
|---|---|---|---|---|---|---|---|
| 1778034475 | 20° C | 37% | 1007.8 hPa | 0 mm | 2.24 m/s, 233° | - | - |
| 1778034175 | 20° C | 37% | 1007.8 hPa | 0 mm | 2.24 m/s, 205° | - | - |
| 1778033875 | 20° C | 37% | 1007.8 hPa | 0 mm | 2.24 m/s, 249° | - | - |
| 1778033575 | 20° C | 37% | 1007.5 hPa | 0 mm | 1.79 m/s, 252° | - | - |
| 1778033275 | 20° C | 36% | 1007.5 hPa | 0 mm | 2.24 m/s, 264° | - | - |
| 1778032974 | 20° C | 36% | 1007.5 hPa | 0 mm | 1.34 m/s, 163° | - | - |
| 1778032674 | 20° C | 35% | 1007.5 hPa | 0 mm | 1.79 m/s, 152° | - | - |
| 1778032376 | 20° C | 35% | 1007.5 hPa | 0 mm | 1.79 m/s, 208° | - | - |
| 1778032076 | 20.56° C | 35% | 1007.5 hPa | 0 mm | 1.34 m/s, 201° | - | - |
| 1778031775 | 20.56° C | 34% | 1007.5 hPa | 0 mm | 1.34 m/s, 173° | - | - |
| 1778031475 | 20.56° C | 34% | 1007.5 hPa | 0 mm | 2.24 m/s, 145° | - | - |
| 1778031174 | 21.11° C | 33% | 1007.5 hPa | 0 mm | 1.34 m/s, 183° | - | - |
| 1778030874 | 21.11° C | 33% | 1007.5 hPa | 0 mm | 0.89 m/s, 256° | - | - |
| 1778030576 | 21.11° C | 33% | 1007.5 hPa | 0 mm | 1.34 m/s, 240° | - | - |
| 1778030275 | 21.11° C | 33% | 1007.5 hPa | 0 mm | 1.79 m/s, 165° | - | - |
| 1778029975 | 21.11° C | 33% | 1007.5 hPa | 0 mm | 0.89 m/s, 236° | - | - |
| 1778029675 | 21.11° C | 32% | 1007.5 hPa | 0 mm | 1.34 m/s, 181° | - | - |
| 1778029374 | 21.11° C | 31% | 1007.2 hPa | 0 mm | 0 m/s | - | - |
| 1778029075 | 21.11° C | 32% | 1007.2 hPa | 0 mm | 2.24 m/s, 169° | - | - |
| 1778028775 | 21.11° C | 31% | 1007.2 hPa | 0 mm | 1.34 m/s, 194° | - | - |
| 1778028475 | 21.11° C | 31% | 1007.2 hPa | 0 mm | 1.34 m/s, 225° | - | - |
| 1778028175 | 21.11° C | 31% | 1007.2 hPa | 0 mm | 2.24 m/s, 233° | - | - |
| 1778027876 | 21.11° C | 32% | 1007.2 hPa | 0 mm | 0.45 m/s, 208° | - | - |
| 1778027575 | 21.11° C | 31% | 1007.2 hPa | 0 mm | 1.34 m/s, 72° | - | - |
| 1778027275 | 21.67° C | 31% | 1007.2 hPa | 0 mm | 1.34 m/s, 222° | - | - |
* Rain latest hour (hover to see other rain measurements)
** Current wind speed in m/s (hover to see current wind gust speed)